Location: ???? ???? ?????
(31.2680°N, 31.7283°E)
Time: 08:32:58
(UTC+00:00)

BREEZE-M R/B - Pass Details

Date: 13 July 2020
Orbit: 311 x 4532 km, 49.7° (Epoch: 07 August)

Event Time Altitude Azimuth Distance (km) Brightness Sun altitude
Rises 19:34:27 0° 310° (NW) 5,765 9.2 -26.7°
Reaches altitude 10° 19:39:17 10° 308° (NW) 4,025 8.1 -27.4°
Maximum altitude 19:48:09 56° 233° (SW) 1,066 4.1 -28.5°
Enters shadow 19:48:12 56° 231° (SW) 1,062 4.1 -28.5°
